contact:dominique.lefevre@mio.osupytheas.fr, maurice.libes@osupytheas.fr, didier.mallarino@osupytheas.fr
Project:EMSO http://www.emso-fr.org/EMSO-France
Depth: 2436.0 m
Title:EMSO Ligure Ouest : Data MII capteur CSTAR
DateTime,Latitude,Longitude,Instrument_Serial,Reference_Counts,Signal_Counts,Corrected_Signal_raw_counts,Calculated_Beam_c_inverse_meters,Internal_thermistor_counts
DateTime,Latitude,Longitude,Instrument_Serial,Reference_Counts,Signal_Counts,Corrected_Signal_raw_counts,Calculated_Beam_c_inverse_meters,Internal_thermistor_counts
2023-03-21T00:02:53,42.805,6.029,CST-1368DR,4347,4765,11643,01.174,551
2023-03-21T00:05:55,42.805,6.029,CST-1368DR,4347,4761,11632,01.178,551
2023-03-21T00:08:56,42.805,6.029,CST-1368DR,4347,4766,11645,01.174,551
2023-03-21T00:11:58,42.805,6.029,CST-1368DR,4347,4770,11656,01.170,551
2023-03-21T00:15:00,42.805,6.029,CST-1368DR,4347,4764,11639,01.176,551
2023-03-21T00:18:01,42.805,6.029,CST-1368DR,4347,4766,11644,01.174,551
2023-03-21T00:21:03,42.805,6.029,CST-1368DR,4347,4764,11640,01.175,551
2023-03-21T00:24:04,42.805,6.029,CST-1368DR,4347,4766,11645,01.174,551
2023-03-21T00:27:06,42.805,6.029,CST-1368DR,4347,4766,11645,01.174,551
2023-03-21T00:30:07,42.805,6.029,CST-1368DR,4347,4765,11643,01.174,551
2023-03-21T00:33:09,42.805,6.029,CST-1368DR,4347,4767,11648,01.173,551
2023-03-21T00:36:11,42.805,6.029,CST-1368DR,4347,4768,11650,01.172,551
2023-03-21T00:39:12,42.805,6.029,CST-1368DR,4347,4766,11646,01.173,551
2023-03-21T00:42:14,42.805,6.029,CST-1368DR,4347,4763,11637,01.176,551
2023-03-21T00:45:15,42.805,6.029,CST-1368DR,4347,4769,11652,01.171,551
2023-03-21T00:48:17,42.805,6.029,CST-1368DR,4347,4766,11644,01.174,551
2023-03-21T00:51:18,42.805,6.029,CST-1368DR,4347,4767,11648,01.173,551
2023-03-21T00:54:20,42.805,6.029,CST-1368DR,4347,4762,11636,01.177,551
2023-03-21T00:57:22,42.805,6.029,CST-1368DR,4347,4770,11654,01.171,551
2023-03-21T01:00:23,42.805,6.029,CST-1368DR,4347,4765,11643,01.174,551
2023-03-21T01:03:25,42.805,6.029,CST-1368DR,4347,4766,11646,01.173,551
2023-03-21T01:06:26,42.805,6.029,CST-1368DR,4347,4762,11636,01.177,551
2023-03-21T01:09:28,42.805,6.029,CST-1368DR,4347,4762,11636,01.177,551
2023-03-21T01:12:30,42.805,6.029,CST-1368DR,4347,4761,11633,01.178,551
2023-03-21T01:15:31,42.805,6.029,CST-1368DR,4347,4764,11640,01.175,551
2023-03-21T01:18:33,42.805,6.029,CST-1368DR,4347,4760,11630,01.179,551
2023-03-21T01:21:34,42.805,6.029,CST-1368DR,4347,4763,11639,01.176,551
2023-03-21T01:24:36,42.805,6.029,CST-1368DR,4347,4762,11636,01.177,551
2023-03-21T01:27:37,42.805,6.029,CST-1368DR,4347,4764,11640,01.175,551
2023-03-21T01:30:39,42.805,6.029,CST-1368DR,4347,4771,11658,01.169,551
2023-03-21T01:33:41,42.805,6.029,CST-1368DR,4347,4766,11645,01.174,551
2023-03-21T01:36:42,42.805,6.029,CST-1368DR,4347,4769,11651,01.172,551
2023-03-21T01:39:44,42.805,6.029,CST-1368DR,4347,4772,11661,01.168,551
2023-03-21T01:42:45,42.805,6.029,CST-1368DR,4347,4763,11639,01.176,551
2023-03-21T01:45:47,42.805,6.029,CST-1368DR,4347,4766,11645,01.174,551
2023-03-21T01:48:48,42.805,6.029,CST-1368DR,4347,4767,11648,01.173,551
2023-03-21T01:51:50,42.805,6.029,CST-1368DR,4347,4767,11648,01.173,551
2023-03-21T01:54:52,42.805,6.029,CST-1368DR,4347,4765,11643,01.174,551
2023-03-21T01:57:53,42.805,6.029,CST-1368DR,4347,4768,11650,01.172,551
2023-03-21T02:00:55,42.805,6.029,CST-1368DR,4347,4766,11645,01.174,551
2023-03-21T02:03:56,42.805,6.029,CST-1368DR,4347,4773,11662,01.168,551
2023-03-21T02:06:58,42.805,6.029,CST-1368DR,4347,4766,11646,01.173,551
2023-03-21T02:09:59,42.805,6.029,CST-1368DR,4347,4765,11643,01.174,551
2023-03-21T02:13:01,42.805,6.029,CST-1368DR,4347,4774,11665,01.167,551
2023-03-21T02:16:03,42.805,6.029,CST-1368DR,4347,4767,11648,01.173,551
2023-03-21T02:19:04,42.805,6.029,CST-1368DR,4347,4766,11645,01.174,551
2023-03-21T02:22:06,42.805,6.029,CST-1368DR,4347,4767,11648,01.173,551
2023-03-21T02:25:07,42.805,6.029,CST-1368DR,4347,4764,11640,01.175,551
2023-03-21T02:28:09,42.805,6.029,CST-1368DR,4347,4764,11641,01.175,551
2023-03-21T02:31:11,42.805,6.029,CST-1368DR,4347,4767,11647,01.173,551
2023-03-21T02:34:12,42.805,6.029,CST-1368DR,4347,4769,11653,01.171,551
2023-03-21T02:37:14,42.805,6.029,CST-1368DR,4347,4766,11644,01.174,551
2023-03-21T02:40:15,42.805,6.029,CST-1368DR,4347,4757,11622,01.182,551
2023-03-21T02:43:17,42.805,6.029,CST-1368DR,4347,4763,11637,01.176,551
2023-03-21T02:46:18,42.805,6.029,CST-1368DR,4347,4763,11637,01.176,551
2023-03-21T02:49:20,42.805,6.029,CST-1368DR,4347,4764,11640,01.175,551
2023-03-21T02:52:22,42.805,6.029,CST-1368DR,4347,4761,11633,01.178,551
2023-03-21T02:55:23,42.805,6.029,CST-1368DR,4347,4764,11640,01.175,551
2023-03-21T02:58:25,42.805,6.029,CST-1368DR,4347,4758,11625,01.181,551
2023-03-21T03:01:26,42.805,6.029,CST-1368DR,4347,4764,11640,01.175,551
2023-03-21T03:04:28,42.805,6.029,CST-1368DR,4347,4765,11643,01.174,551
2023-03-21T03:07:29,42.805,6.029,CST-1368DR,4347,4766,11645,01.174,551
2023-03-21T03:10:31,42.805,6.029,CST-1368DR,4347,4769,11652,01.171,551
2023-03-21T03:13:33,42.805,6.029,CST-1368DR,4347,4765,11643,01.174,551
2023-03-21T03:16:34,42.805,6.029,CST-1368DR,4347,4766,11645,01.174,551
2023-03-21T03:19:36,42.805,6.029,CST-1368DR,4347,4769,11653,01.171,551
2023-03-21T03:22:37,42.805,6.029,CST-1368DR,4347,4767,11647,01.173,551
2023-03-21T03:25:39,42.805,6.029,CST-1368DR,4347,4769,11653,01.171,551
2023-03-21T03:28:41,42.805,6.029,CST-1368DR,4347,4769,11652,01.171,551
2023-03-21T03:31:42,42.805,6.029,CST-1368DR,4347,4773,11662,01.168,551
2023-03-21T03:34:44,42.805,6.029,CST-1368DR,4347,4769,11653,01.171,551
2023-03-21T03:37:45,42.805,6.029,CST-1368DR,4347,4768,11650,01.172,551
2023-03-21T03:40:47,42.805,6.029,CST-1368DR,4347,4770,11655,01.170,551
2023-03-21T03:43:48,42.805,6.029,CST-1368DR,4347,4767,11648,01.173,551
2023-03-21T03:46:50,42.805,6.029,CST-1368DR,4347,4773,11663,01.167,551
2023-03-21T03:49:52,42.805,6.029,CST-1368DR,4347,4770,11655,01.170,551
2023-03-21T03:52:53,42.805,6.029,CST-1368DR,4347,4766,11645,01.174,551
2023-03-21T03:55:55,42.805,6.029,CST-1368DR,4347,4774,11664,01.167,551
2023-03-21T03:58:56,42.805,6.029,CST-1368DR,4347,4772,11660,01.169,551
2023-03-21T04:01:58,42.805,6.029,CST-1368DR,4347,4773,11661,01.168,552
2023-03-21T04:04:59,42.805,6.029,CST-1368DR,4347,4772,11659,01.169,551
2023-03-21T04:08:01,42.805,6.029,CST-1368DR,4347,4780,11679,01.162,551
2023-03-21T04:11:03,42.805,6.029,CST-1368DR,4347,4774,11664,01.167,551
2023-03-21T04:14:04,42.805,6.029,CST-1368DR,4347,4773,11661,01.168,551
2023-03-21T04:17:06,42.805,6.029,CST-1368DR,4347,4771,11657,01.170,551
2023-03-21T04:20:07,42.805,6.029,CST-1368DR,4347,4771,11658,01.169,551
2023-03-21T04:23:09,42.805,6.029,CST-1368DR,4347,4764,11640,01.175,551
2023-03-21T04:26:11,42.805,6.029,CST-1368DR,4347,4773,11662,01.168,551
2023-03-21T04:29:12,42.805,6.029,CST-1368DR,4347,4773,11662,01.168,551
2023-03-21T04:32:14,42.805,6.029,CST-1368DR,4347,4773,11662,01.168,551
2023-03-21T04:35:15,42.805,6.029,CST-1368DR,4347,4773,11661,01.168,551
2023-03-21T04:38:17,42.805,6.029,CST-1368DR,4347,4773,11662,01.168,551
2023-03-21T04:41:18,42.805,6.029,CST-1368DR,4347,4773,11662,01.168,551
2023-03-21T04:44:20,42.805,6.029,CST-1368DR,4346,4773,11664,01.167,551
2023-03-21T04:47:22,42.805,6.029,CST-1368DR,4346,4772,11663,01.167,551
2023-03-21T04:50:23,42.805,6.029,CST-1368DR,4346,4776,11672,01.164,551
2023-03-21T04:53:25,42.805,6.029,CST-1368DR,4346,4772,11662,01.168,551
2023-03-21T04:56:26,42.805,6.029,CST-1368DR,4346,4771,11660,01.169,551
2023-03-21T04:59:28,42.805,6.029,CST-1368DR,4346,4771,11660,01.169,551
2023-03-21T05:02:29,42.805,6.029,CST-1368DR,4346,4772,11663,01.167,551
2023-03-21T05:05:31,42.805,6.029,CST-1368DR,4346,4770,11657,01.170,551
2023-03-21T05:08:33,42.805,6.029,CST-1368DR,4346,4772,11663,01.167,551
2023-03-21T05:11:34,42.805,6.029,CST-1368DR,4346,4771,11661,01.168,551
2023-03-21T05:14:36,42.805,6.029,CST-1368DR,4346,4774,11667,01.166,551
2023-03-21T05:17:37,42.805,6.029,CST-1368DR,4346,4775,11669,01.165,551
2023-03-21T05:20:39,42.805,6.029,CST-1368DR,4346,4785,11693,01.157,551
2023-03-21T05:23:40,42.805,6.029,CST-1368DR,4346,4773,11666,01.166,551
2023-03-21T05:26:42,42.805,6.029,CST-1368DR,4346,4773,11665,01.167,551
2023-03-21T05:29:44,42.805,6.029,CST-1368DR,4346,4774,11666,01.166,551
2023-03-21T05:32:45,42.805,6.029,CST-1368DR,4346,4771,11660,01.169,551
2023-03-21T05:35:47,42.805,6.029,CST-1368DR,4346,4772,11663,01.167,551
2023-03-21T05:38:48,42.805,6.029,CST-1368DR,4346,4771,11659,01.169,551
2023-03-21T05:41:50,42.805,6.029,CST-1368DR,4346,4771,11660,01.169,551
2023-03-21T05:44:52,42.805,6.029,CST-1368DR,4346,4768,11652,01.171,551
2023-03-21T05:47:53,42.805,6.029,CST-1368DR,4346,4770,11658,01.169,551
2023-03-21T05:50:55,42.805,6.029,CST-1368DR,4346,4765,11645,01.174,551
2023-03-21T05:53:56,42.805,6.029,CST-1368DR,4346,4768,11652,01.171,551
2023-03-21T05:56:58,42.805,6.029,CST-1368DR,4346,4769,11655,01.170,551
2023-03-21T05:59:59,42.805,6.029,CST-1368DR,4346,4768,11652,01.171,551
2023-03-21T06:03:01,42.805,6.029,CST-1368DR,4346,4767,11650,01.172,551
2023-03-21T06:06:03,42.805,6.029,CST-1368DR,4346,4768,11652,01.171,551
2023-03-21T06:09:04,42.805,6.029,CST-1368DR,4346,4767,11651,01.172,551
2023-03-21T06:12:06,42.805,6.029,CST-1368DR,4346,4764,11643,01.174,551
2023-03-21T06:15:07,42.805,6.029,CST-1368DR,4347,4767,11648,01.173,551
2023-03-21T06:18:09,42.805,6.029,CST-1368DR,4347,4766,11646,01.173,551
2023-03-21T06:21:10,42.805,6.029,CST-1368DR,4347,4767,11647,01.173,551
2023-03-21T06:24:12,42.805,6.029,CST-1368DR,4346,4765,11645,01.174,551
2023-03-21T06:27:14,42.805,6.029,CST-1368DR,4347,4765,11643,01.174,551
2023-03-21T06:30:15,42.805,6.029,CST-1368DR,4347,4766,11645,01.174,551
2023-03-21T06:33:17,42.805,6.029,CST-1368DR,4347,4767,11647,01.173,551
2023-03-21T06:36:18,42.805,6.029,CST-1368DR,4347,4766,11646,01.173,551
2023-03-21T06:39:20,42.805,6.029,CST-1368DR,4347,4765,11642,01.175,551
2023-03-21T06:42:21,42.805,6.029,CST-1368DR,4347,4766,11645,01.174,551
2023-03-21T06:45:23,42.805,6.029,CST-1368DR,4347,4767,11648,01.173,551
2023-03-21T06:48:25,42.805,6.029,CST-1368DR,4346,4766,11649,01.172,551
2023-03-21T06:51:26,42.805,6.029,CST-1368DR,4346,4769,11655,01.170,551
2023-03-21T06:54:28,42.805,6.029,CST-1368DR,4346,4767,11649,01.172,551
2023-03-21T06:57:29,42.805,6.029,CST-1368DR,4346,4764,11642,01.175,551
2023-03-21T07:00:31,42.805,6.029,CST-1368DR,4346,4767,11650,01.172,551
2023-03-21T07:03:33,42.805,6.029,CST-1368DR,4347,4775,11666,01.166,551
2023-03-21T07:06:34,42.805,6.029,CST-1368DR,4346,4774,11668,01.166,551
2023-03-21T07:09:36,42.805,6.029,CST-1368DR,4347,4769,11653,01.171,551
2023-03-21T07:12:37,42.805,6.029,CST-1368DR,4347,4769,11653,01.171,551
2023-03-21T07:15:39,42.805,6.029,CST-1368DR,4346,4763,11640,01.175,551
2023-03-21T07:18:40,42.805,6.029,CST-1368DR,4347,4764,11640,01.175,551
2023-03-21T07:21:42,42.805,6.029,CST-1368DR,4347,4772,11659,01.169,551
2023-03-21T07:24:44,42.805,6.029,CST-1368DR,4347,4767,11648,01.173,551
2023-03-21T07:27:45,42.805,6.029,CST-1368DR,4347,4774,11665,01.167,551
2023-03-21T07:30:47,42.805,6.029,CST-1368DR,4347,4774,11664,01.167,551
2023-03-21T07:33:48,42.805,6.029,CST-1368DR,4347,4773,11661,01.168,551
2023-03-21T07:36:50,42.805,6.029,CST-1368DR,4347,4769,11653,01.171,551
2023-03-21T07:39:51,42.805,6.029,CST-1368DR,4347,4771,11658,01.169,551
2023-03-21T07:42:53,42.805,6.029,CST-1368DR,4347,4771,11658,01.169,551
2023-03-21T07:45:55,42.805,6.029,CST-1368DR,4347,4770,11655,01.170,551
2023-03-21T07:48:56,42.805,6.029,CST-1368DR,4347,4771,11657,01.170,551
2023-03-21T07:51:58,42.805,6.029,CST-1368DR,4347,4771,11657,01.170,551
2023-03-21T07:54:59,42.805,6.029,CST-1368DR,4347,4770,11654,01.171,551
2023-03-21T07:58:01,42.805,6.029,CST-1368DR,4347,4764,11640,01.175,551
2023-03-21T08:01:03,42.805,6.029,CST-1368DR,4347,4768,11649,01.172,551
2023-03-21T08:04:04,42.805,6.029,CST-1368DR,4346,4767,11651,01.172,551
2023-03-21T08:07:06,42.805,6.029,CST-1368DR,4346,4762,11638,01.176,551
2023-03-21T08:10:07,42.805,6.029,CST-1368DR,4347,4763,11638,01.176,551
2023-03-21T08:13:09,42.805,6.029,CST-1368DR,4346,4759,11630,01.179,551
2023-03-21T08:16:10,42.805,6.029,CST-1368DR,4347,4759,11629,01.179,551
2023-03-21T08:19:12,42.805,6.029,CST-1368DR,4346,4759,11630,01.179,551
2023-03-21T08:22:14,42.805,6.029,CST-1368DR,4347,4762,11636,01.177,551
2023-03-21T08:25:15,42.805,6.029,CST-1368DR,4346,4759,11631,01.178,551
2023-03-21T08:28:17,42.805,6.029,CST-1368DR,4347,4770,11656,01.170,551
2023-03-21T08:31:18,42.805,6.029,CST-1368DR,4347,4765,11643,01.174,551
2023-03-21T08:34:20,42.805,6.029,CST-1368DR,4347,4760,11631,01.178,551
2023-03-21T08:37:21,42.805,6.029,CST-1368DR,4347,4767,11647,01.173,551
2023-03-21T08:40:23,42.805,6.029,CST-1368DR,4346,4755,11620,01.182,551
2023-03-21T08:43:25,42.805,6.029,CST-1368DR,4347,4764,11640,01.175,551
2023-03-21T08:46:26,42.805,6.029,CST-1368DR,4347,4759,11629,01.179,551
2023-03-21T08:49:28,42.805,6.029,CST-1368DR,4347,4755,11618,01.183,551
2023-03-21T08:52:29,42.805,6.029,CST-1368DR,4346,4756,11623,01.181,551
2023-03-21T08:55:31,42.805,6.029,CST-1368DR,4346,4758,11627,01.180,551
2023-03-21T08:58:33,42.805,6.029,CST-1368DR,4346,4762,11639,01.176,551
2023-03-21T09:01:34,42.805,6.029,CST-1368DR,4346,4751,11611,01.185,551
2023-03-21T09:04:36,42.805,6.029,CST-1368DR,4347,4755,11618,01.183,551
2023-03-21T09:07:37,42.805,6.029,CST-1368DR,4347,4757,11624,01.181,551
2023-03-21T09:10:39,42.805,6.029,CST-1368DR,4347,4758,11625,01.181,551
2023-03-21T09:13:40,42.805,6.029,CST-1368DR,4347,4752,11611,01.185,551
2023-03-21T09:16:42,42.805,6.029,CST-1368DR,4347,4753,11614,01.184,551
2023-03-21T09:19:44,42.805,6.029,CST-1368DR,4347,4756,11620,01.182,551
2023-03-21T09:22:45,42.805,6.029,CST-1368DR,4346,4753,11615,01.184,551
2023-03-21T09:25:47,42.805,6.029,CST-1368DR,4346,4749,11606,01.187,551
2023-03-21T09:28:48,42.805,6.029,CST-1368DR,4346,4752,11614,01.184,551
2023-03-21T09:31:50,42.805,6.029,CST-1368DR,4346,4749,11607,01.187,551
2023-03-21T09:34:52,42.805,6.029,CST-1368DR,4347,4752,11610,01.186,551
2023-03-21T09:37:53,42.805,6.029,CST-1368DR,4347,4753,11612,01.185,551
2023-03-21T09:40:55,42.805,6.029,CST-1368DR,4346,4748,11603,01.188,551
2023-03-21T09:43:56,42.805,6.029,CST-1368DR,4346,4749,11606,01.187,551
2023-03-21T09:46:58,42.805,6.029,CST-1368DR,4346,4750,11609,01.186,551
2023-03-21T09:49:59,42.805,6.029,CST-1368DR,4346,4745,11596,01.191,551
2023-03-21T09:53:01,42.805,6.029,CST-1368DR,4346,4748,11603,01.188,551
2023-03-21T09:56:03,42.805,6.029,CST-1368DR,4346,4748,11603,01.188,551
2023-03-21T09:59:04,42.805,6.029,CST-1368DR,4346,4748,11603,01.188,551
2023-03-21T10:02:06,42.805,6.029,CST-1368DR,4346,4747,11601,01.189,551
2023-03-21T10:05:07,42.805,6.029,CST-1368DR,4346,4749,11607,01.187,551
2023-03-21T10:08:09,42.805,6.029,CST-1368DR,4346,4734,11568,01.200,551
2023-03-21T10:11:10,42.805,6.029,CST-1368DR,4346,4732,11565,01.201,551
2023-03-21T10:14:12,42.805,6.029,CST-1368DR,4346,4734,11569,01.200,551
2023-03-21T10:17:14,42.805,6.029,CST-1368DR,4346,4735,11572,01.199,551
2023-03-21T10:20:15,42.805,6.029,CST-1368DR,4346,4734,11570,01.200,551
2023-03-21T10:23:17,42.805,6.029,CST-1368DR,4346,4726,11550,01.206,551
2023-03-21T10:26:18,42.805,6.029,CST-1368DR,4346,4733,11566,01.201,551
2023-03-21T10:29:20,42.805,6.029,CST-1368DR,4346,4730,11559,01.203,551
2023-03-21T10:32:21,42.805,6.029,CST-1368DR,4346,4738,11579,01.196,551
2023-03-21T10:35:23,42.805,6.029,CST-1368DR,4346,4732,11564,01.202,551
2023-03-21T10:38:25,42.805,6.029,CST-1368DR,4346,4734,11569,01.200,551
2023-03-21T10:41:26,42.805,6.029,CST-1368DR,4346,4730,11560,01.203,551
2023-03-21T10:44:28,42.805,6.029,CST-1368DR,4346,4737,11576,01.197,551
2023-03-21T10:47:29,42.805,6.029,CST-1368DR,4346,4736,11573,01.198,552
2023-03-21T10:50:31,42.805,6.029,CST-1368DR,4346,4733,11568,01.200,551
2023-03-21T10:53:33,42.805,6.029,CST-1368DR,4346,4733,11567,01.201,551
2023-03-21T10:56:34,42.805,6.029,CST-1368DR,4346,4732,11564,01.202,551
2023-03-21T10:59:36,42.805,6.029,CST-1368DR,4346,4738,11579,01.196,551
2023-03-21T11:02:37,42.805,6.029,CST-1368DR,4346,4740,11585,01.194,551
2023-03-21T11:05:39,42.805,6.029,CST-1368DR,4346,4737,11576,01.197,551
2023-03-21T11:08:40,42.805,6.029,CST-1368DR,4346,4741,11586,01.194,551
2023-03-21T11:11:42,42.805,6.029,CST-1368DR,4346,4737,11576,01.197,551
2023-03-21T11:14:44,42.805,6.029,CST-1368DR,4346,4741,11586,01.194,551
2023-03-21T11:17:45,42.805,6.029,CST-1368DR,4346,4737,11576,01.197,551
2023-03-21T11:20:47,42.805,6.029,CST-1368DR,4346,4742,11588,01.193,551
2023-03-21T11:23:48,42.805,6.029,CST-1368DR,4346,4741,11587,01.194,551
2023-03-21T11:26:50,42.805,6.029,CST-1368DR,4346,4737,11576,01.197,551
2023-03-21T11:29:51,42.805,6.029,CST-1368DR,4346,4737,11577,01.197,551
2023-03-21T11:32:53,42.805,6.029,CST-1368DR,4346,4737,11576,01.197,551
2023-03-21T11:35:55,42.805,6.029,CST-1368DR,4346,4739,11582,01.195,551
2023-03-21T11:38:56,42.805,6.029,CST-1368DR,4346,4739,11582,01.195,551
2023-03-21T11:41:58,42.805,6.029,CST-1368DR,4346,4739,11581,01.196,551
2023-03-21T11:44:59,42.805,6.029,CST-1368DR,4347,4746,11596,01.191,551
2023-03-21T11:48:01,42.805,6.029,CST-1368DR,4346,4749,11607,01.187,551
2023-03-21T11:51:03,42.805,6.029,CST-1368DR,4346,4740,11584,01.195,551
2023-03-21T11:54:04,42.805,6.029,CST-1368DR,4346,4741,11586,01.194,551
2023-03-21T11:57:06,42.805,6.029,CST-1368DR,4346,4743,11592,01.192,551
2023-03-21T12:00:07,42.805,6.029,CST-1368DR,4346,4738,11580,01.196,551
2023-03-21T12:03:09,42.805,6.029,CST-1368DR,4346,4744,11594,01.191,551
2023-03-21T12:06:10,42.805,6.029,CST-1368DR,4346,4741,11586,01.194,551
2023-03-21T12:09:12,42.805,6.029,CST-1368DR,4346,4740,11585,01.194,551
2023-03-21T12:12:14,42.805,6.029,CST-1368DR,4346,4739,11581,01.196,551
2023-03-21T12:15:15,42.805,6.029,CST-1368DR,4346,4746,11600,01.189,551
2023-03-21T12:18:17,42.805,6.029,CST-1368DR,4346,4744,11594,01.191,551
2023-03-21T12:21:18,42.805,6.029,CST-1368DR,4346,4739,11582,01.195,551
2023-03-21T12:24:20,42.805,6.029,CST-1368DR,4346,4743,11590,01.193,551
2023-03-21T12:27:21,42.805,6.029,CST-1368DR,4346,4738,11578,01.197,551
2023-03-21T12:30:23,42.805,6.029,CST-1368DR,4346,4739,11581,01.196,551
2023-03-21T12:33:25,42.805,6.029,CST-1368DR,4346,4737,11576,01.197,551
2023-03-21T12:36:26,42.805,6.029,CST-1368DR,4346,4737,11577,01.197,551
2023-03-21T12:39:28,42.805,6.029,CST-1368DR,4346,4737,11576,01.197,551
2023-03-21T12:42:29,42.805,6.029,CST-1368DR,4346,4740,11583,01.195,551
2023-03-21T12:45:31,42.805,6.029,CST-1368DR,4346,4743,11590,01.193,551
2023-03-21T12:48:32,42.805,6.029,CST-1368DR,4346,4738,11579,01.196,551
2023-03-21T12:51:34,42.805,6.029,CST-1368DR,4346,4740,11584,01.195,551
2023-03-21T12:54:36,42.805,6.029,CST-1368DR,4346,4749,11606,01.187,551
2023-03-21T12:57:37,42.805,6.029,CST-1368DR,4346,4747,11601,01.189,551
2023-03-21T13:00:39,42.805,6.029,CST-1368DR,4346,4753,11616,01.184,551
2023-03-21T13:03:40,42.805,6.029,CST-1368DR,4346,4747,11602,01.188,551
2023-03-21T13:06:42,42.805,6.029,CST-1368DR,4346,4742,11588,01.193,551
2023-03-21T13:09:44,42.805,6.029,CST-1368DR,4346,4742,11588,01.193,551
2023-03-21T13:12:45,42.805,6.029,CST-1368DR,4346,4743,11592,01.192,551
2023-03-21T13:15:47,42.805,6.029,CST-1368DR,4346,4743,11592,01.192,551
2023-03-21T13:18:48,42.805,6.029,CST-1368DR,4346,4745,11597,01.190,551
2023-03-21T13:21:50,42.805,6.029,CST-1368DR,4346,4742,11589,01.193,551
2023-03-21T13:24:51,42.805,6.029,CST-1368DR,4346,4741,11587,01.194,551
2023-03-21T13:27:53,42.805,6.029,CST-1368DR,4346,4741,11587,01.194,551
2023-03-21T13:30:56,42.805,6.029,CST-1368DR,4346,4743,11592,01.192,551
2023-03-21T13:33:58,42.805,6.029,CST-1368DR,4346,4746,11598,01.190,551
2023-03-21T13:36:59,42.805,6.029,CST-1368DR,4346,4743,11592,01.192,551
2023-03-21T13:40:01,42.805,6.029,CST-1368DR,4346,4742,11590,01.193,551
2023-03-21T13:43:03,42.805,6.029,CST-1368DR,4346,4741,11587,01.194,551
2023-03-21T13:46:04,42.805,6.029,CST-1368DR,4346,4741,11587,01.194,551
2023-03-21T13:49:06,42.805,6.029,CST-1368DR,4346,4740,11583,01.195,551
2023-03-21T13:52:07,42.805,6.029,CST-1368DR,4346,4741,11586,01.194,551
2023-03-21T13:55:09,42.805,6.029,CST-1368DR,4346,4742,11590,01.193,551
2023-03-21T13:58:11,42.805,6.029,CST-1368DR,4346,4742,11588,01.193,551
2023-03-21T14:01:12,42.805,6.029,CST-1368DR,4346,4739,11581,01.196,551
2023-03-21T14:04:14,42.805,6.029,CST-1368DR,4346,4737,11578,01.197,551
2023-03-21T14:07:15,42.805,6.029,CST-1368DR,4346,4739,11582,01.195,551
2023-03-21T14:10:17,42.805,6.029,CST-1368DR,4346,4747,11600,01.189,551
2023-03-21T14:13:18,42.805,6.029,CST-1368DR,4346,4734,11569,01.200,551
2023-03-21T14:16:20,42.805,6.029,CST-1368DR,4346,4725,11546,01.208,551
2023-03-21T14:19:22,42.805,6.029,CST-1368DR,4346,4747,11602,01.188,551
2023-03-21T14:22:23,42.805,6.029,CST-1368DR,4346,4734,11568,01.200,551
2023-03-21T14:25:25,42.805,6.029,CST-1368DR,4346,4736,11575,01.198,551
2023-03-21T14:28:26,42.805,6.029,CST-1368DR,4346,4738,11579,01.196,551
2023-03-21T14:31:28,42.805,6.029,CST-1368DR,4346,4727,11553,01.205,551
2023-03-21T14:34:30,42.805,6.029,CST-1368DR,4346,4716,11526,01.215,551
2023-03-21T14:37:31,42.805,6.029,CST-1368DR,4346,4736,11575,01.198,551
2023-03-21T14:40:33,42.805,6.029,CST-1368DR,4346,4736,11574,01.198,551
2023-03-21T14:43:34,42.805,6.029,CST-1368DR,4346,4737,11576,01.197,551
2023-03-21T14:46:36,42.805,6.029,CST-1368DR,4346,4729,11557,01.204,551
2023-03-21T14:49:37,42.805,6.029,CST-1368DR,4346,4732,11564,01.202,551
2023-03-21T14:52:39,42.805,6.029,CST-1368DR,4346,4732,11565,01.201,551
2023-03-21T14:55:41,42.805,6.029,CST-1368DR,4346,4735,11572,01.199,551
2023-03-21T14:58:42,42.805,6.029,CST-1368DR,4346,4734,11570,01.200,551
2023-03-21T15:01:44,42.805,6.029,CST-1368DR,4346,4734,11570,01.200,551
2023-03-21T15:04:45,42.805,6.029,CST-1368DR,4346,4743,11592,01.192,551
2023-03-21T15:07:47,42.805,6.029,CST-1368DR,4346,4753,11616,01.184,551
2023-03-21T15:10:48,42.805,6.029,CST-1368DR,4346,4740,11583,01.195,551
2023-03-21T15:13:50,42.805,6.029,CST-1368DR,4346,4734,11570,01.200,551
2023-03-21T15:16:52,42.805,6.029,CST-1368DR,4346,4724,11544,01.209,551
2023-03-21T15:19:53,42.805,6.029,CST-1368DR,4346,4739,11582,01.195,551
2023-03-21T15:22:55,42.805,6.029,CST-1368DR,4346,4722,11540,01.210,551
2023-03-21T15:25:56,42.805,6.029,CST-1368DR,4346,4739,11581,01.196,551
2023-03-21T15:28:58,42.805,6.029,CST-1368DR,4346,4741,11587,01.194,551
2023-03-21T15:31:59,42.805,6.029,CST-1368DR,4346,4749,11606,01.187,551
2023-03-21T15:35:01,42.805,6.029,CST-1368DR,4346,4748,11603,01.188,551
2023-03-21T15:38:03,42.805,6.029,CST-1368DR,4346,4743,11590,01.193,551
2023-03-21T15:41:04,42.805,6.029,CST-1368DR,4346,4746,11599,01.190,551
2023-03-21T15:44:06,42.805,6.029,CST-1368DR,4346,4747,11601,01.189,551
2023-03-21T15:47:07,42.805,6.029,CST-1368DR,4346,4746,11599,01.190,551
2023-03-21T15:50:09,42.805,6.029,CST-1368DR,4346,4750,11609,01.186,551
2023-03-21T15:53:11,42.805,6.029,CST-1368DR,4346,4747,11602,01.188,551
2023-03-21T15:56:12,42.805,6.029,CST-1368DR,4346,4747,11601,01.189,551
2023-03-21T15:59:14,42.805,6.029,CST-1368DR,4346,4750,11609,01.186,551
2023-03-21T16:02:15,42.805,6.029,CST-1368DR,4346,4749,11606,01.187,551
2023-03-21T16:05:17,42.805,6.029,CST-1368DR,4346,4746,11598,01.190,551
2023-03-21T16:08:18,42.805,6.029,CST-1368DR,4346,4747,11601,01.189,551
2023-03-21T16:11:20,42.805,6.029,CST-1368DR,4346,4742,11588,01.193,551
2023-03-21T16:14:22,42.805,6.029,CST-1368DR,4346,4744,11594,01.191,551
2023-03-21T16:17:23,42.805,6.029,CST-1368DR,4346,4747,11601,01.189,551
2023-03-21T16:20:25,42.805,6.029,CST-1368DR,4346,4743,11591,01.192,551
2023-03-21T16:23:26,42.805,6.029,CST-1368DR,4346,4753,11616,01.184,551
2023-03-21T16:26:28,42.805,6.029,CST-1368DR,4346,4751,11611,01.185,551
2023-03-21T16:29:29,42.805,6.029,CST-1368DR,4346,4752,11613,01.185,551
2023-03-21T16:32:31,42.805,6.029,CST-1368DR,4346,4749,11607,01.187,551
2023-03-21T16:35:33,42.805,6.029,CST-1368DR,4346,4746,11599,01.190,551
2023-03-21T16:38:34,42.805,6.029,CST-1368DR,4346,4747,11601,01.189,551